GW2645 Weather Reports


Display with metric or nautical units.
time (UTC)temp
F
wind
direction
speed
MPH
gust
MPH
rain 1hr
in
rain 24hr
in
rain mn
in
humidity
%
barometer
mb
20260503204006 75 173 4.0 9.0 0.00 0.00 0.00 52 1012.0
20260503203510 75 171 3.0 9.0 0.00 0.00 0.00 50 1012.1
20260503203025 76 221 4.0 12.0 0.00 0.00 0.00 50 1012.0
20260503202513 75 271 4.0 12.0 0.00 0.00 0.00 51 1012.1
20260503202009 75 252 5.0 10.0 0.00 0.00 0.00 53 1012.1
20260503201526 75 211 3.0 11.0 0.00 0.00 0.00 53 1012.1
20260503201004 75 227 4.0 11.0 0.00 0.00 0.00 55 1012.1
20260503200504 76 159 4.0 11.0 0.00 0.00 0.00 52 1012.2
20260503200016 76 242 4.0 11.0 0.00 0.00 0.00 52 1012.3
20260503195505 75 227 4.0 8.0 0.00 0.00 0.00 51 1012.4
20260503195006 77 293 1.0 7.0 0.00 0.00 0.00 46 1012.5
20260503194521 76 288 2.0 7.0 0.00 0.00 0.00 47 1012.5
20260503194006 75 312 2.0 8.0 0.00 0.00 0.00 48 1012.7
20260503193506 75 324 2.0 8.0 0.00 0.00 0.00 46 1012.7
20260503193025 77 240 2.0 7.0 0.00 0.00 0.00 44 1012.9
20260503192508 77 274 1.0 7.0 0.00 0.00 0.00 45 1012.9
20260503192012 76 24 2.0 7.0 0.00 0.00 0.00 48 1013.0
20260503191524 75 246 1.0 12.0 0.00 0.00 0.00 47 1013.0
20260503191008 74 26 2.0 12.0 0.00 0.00 0.00 47 1013.1
20260503190509 74 343 3.0 11.0 0.00 0.00 0.00 47 1013.1
20260503190038 74 323 5.0 11.0 0.00 0.00 0.00 47 1013.1
20260503185504 75 263 3.0 9.0 0.00 0.00 0.00 48 1013.2
20260503185005 74 325 1.0 8.0 0.00 0.00 0.00 51 1013.2
20260503184519 74 269 2.0 8.0 0.00 0.00 0.00 54 1013.3
20260503184006 74 249 2.0 7.0 0.00 0.00 0.00 57 1013.3
20260503183505 73 60 1.0 6.0 0.00 0.00 0.00 58 1013.4
20260503183021 73 251 3.0 6.0 0.00 0.00 0.00 58 1013.5
20260503182507 72 327 1.0 7.0 0.00 0.00 0.00 60 1013.6
20260503182008 71 252 4.0 7.0 0.00 0.00 0.00 61 1013.6
20260503181544 71 163 1.0 6.0 0.00 0.00 0.00 61 1013.7
20260503181007 70 217 3.0 7.0 0.00 0.00 0.00 62 1013.7
20260503180506 70 227 3.0 7.0 0.00 0.00 0.00 63 1013.8
20260503180040 70 319 2.0 6.0 0.00 0.00 0.00 62 1013.8
20260503175513 69 277 1.0 7.0 0.00 0.00 0.00 64 1013.8
20260503175009 69 235 2.0 7.0 0.00 0.00 0.00 64 1013.8
20260503174528 69 212 1.0 5.0 0.00 0.00 0.00 63 1013.9
20260503174005 69 273 1.0 5.0 0.00 0.00 0.00 64 1013.9
20260503173504 68 246 1.0 5.0 0.00 0.00 0.00 66 1013.9
20260503173019 68 220 1.0 5.0 0.00 0.00 0.00 64 1013.9
20260503172508 68 254 1.0 5.0 0.00 0.00 0.00 65 1014.0
20260503172006 67 233 2.0 5.0 0.00 0.00 0.00 66 1014.0
20260503171526 67 223 1.0 3.0 0.00 0.00 0.00 66 1014.0
20260503171009 66 275 1.0 6.0 0.00 0.00 0.00 67 1014.1
20260503170506 66 200 3.0 6.0 0.00 0.00 0.00 68 1014.1
20260503151008 56 360 0.0 3.0 0.00 0.00 0.00 83 1014.6
20260503150507 56 352 0.0 3.0 0.00 0.00 0.00 84 1014.6
20260503131005 49 70 0.0 1.0 0.00 0.00 0.00 90 1014.1
20260503130504 50 70 0.0 2.0 0.00 0.00 0.00 90 1014.1
20260503110507 52 70 0.0 2.0 0.00 0.00 0.00 87 1014.5
20260503090507 55 70 1.0 4.0 0.00 0.00 0.00 81 1014.4
20260503081526 56 70 0.0 3.0 0.00 0.00 0.00 77 1014.4
20260503081009 56 70 2.0 3.0 0.00 0.00 0.00 77 1014.4
20260503080508 56 70 2.0 3.0 0.00 0.00 0.00 77 1014.4
20260503072506 57 70 0.0 2.0 0.00 0.00 0.00 73 1014.3
20260503072004 58 70 0.0 2.0 0.00 0.00 0.00 73 1014.3
20260503071522 58 69 1.0 3.0 0.00 0.00 0.00 72 1014.2
20260503071006 58 70 1.0 3.0 0.00 0.00 0.00 72 1014.2
20260503070504 58 70 2.0 3.0 0.00 0.00 0.00 72 1014.2
20260503055007 61 47 1.0 2.0 0.00 0.00 0.00 64 1014.2
20260503054534 62 47 1.0 2.0 0.00 0.00 0.00 63 1014.2
20260503054008 62 47 1.0 3.0 0.00 0.00 0.00 63 1014.2
20260503053507 62 47 1.0 3.0 0.00 0.00 0.00 62 1014.3
20260503053016 63 47 1.0 3.0 0.00 0.00 0.00 61 1014.4
20260503052503 63 47 1.0 3.0 0.00 0.00 0.00 60 1014.3
20260503052004 63 29 2.0 4.0 0.00 0.00 0.00 59 1014.3
20260503051516 64 5 1.0 4.0 0.00 0.00 0.00 59 1014.2
20260503051003 64 352 1.0 4.0 0.00 0.00 0.00 58 1014.1
20260503050506 64 342 1.0 4.0 0.00 0.00 0.00 58 1014.1
20260503050018 64 352 2.0 4.0 0.00 0.00 0.00 58 1014.1
20260503045504 64 19 0.0 3.0 0.00 0.00 0.00 58 1014.0
20260503045007 64 20 1.0 4.0 0.00 0.00 0.00 57 1014.0
20260503044523 65 326 1.0 4.0 0.00 0.00 0.00 57 1013.9
20260503044009 65 346 1.0 4.0 0.00 0.00 0.00 57 1013.8
20260503043508 65 342 1.0 3.0 0.00 0.00 0.00 57 1013.8
20260503043025 65 351 2.0 4.0 0.00 0.00 0.00 57 1013.7
20260503042511 65 346 1.0 5.0 0.00 0.00 0.00 56 1013.6
20260503042011 65 339 1.0 5.0 0.00 0.00 0.00 56 1013.5
20260503041510 66 320 0.0 4.0 0.00 0.00 0.00 56 1013.5
20260503041004 66 325 0.0 3.0 0.00 0.00 0.00 56 1013.5
20260503040509 66 352 0.0 2.0 0.00 0.00 0.00 55 1013.5
20260503040024 66 352 0.0 2.0 0.00 0.00 0.00 54 1013.4
20260503035503 67 282 1.0 4.0 0.00 0.00 0.00 54 1013.3
20260503035007 67 324 1.0 5.0 0.00 0.00 0.00 53 1013.2
20260503034520 67 330 2.0 5.0 0.00 0.00 0.00 53 1013.2
20260503034004 67 290 0.0 5.0 0.00 0.00 0.00 52 1013.1
20260503033507 68 290 2.0 5.0 0.00 0.00 0.00 52 1013.0
20260503033024 68 292 1.0 4.0 0.00 0.00 0.00 51 1013.0
20260503032508 68 321 1.0 5.0 0.00 0.00 0.00 51 1012.9
20260503032006 69 288 0.0 5.0 0.00 0.00 0.00 50 1012.9
20260503031528 69 320 2.0 10.0 0.00 0.00 0.00 49 1012.9
20260503031008 69 319 2.0 10.0 0.00 0.00 0.00 48 1012.8
20260503030510 70 287 1.0 6.0 0.00 0.00 0.00 48 1012.8
20260503030012 70 339 2.0 6.0 0.00 0.00 0.00 48 1012.8
20260503025504 70 313 1.0 7.0 0.00 0.00 0.00 47 1012.8
20260503025004 71 290 1.0 7.0 0.00 0.00 0.00 46 1012.8
20260503024516 71 336 3.0 6.0 0.00 0.00 0.00 46 1012.8
20260503024006 71 278 2.0 9.0 0.00 0.00 0.00 46 1012.9
20260503023505 71 227 3.0 9.0 0.00 0.00 0.00 45 1012.8
20260503023023 71 327 1.0 9.0 0.00 0.00 0.00 45 1012.8
20260503022506 71 318 2.0 9.0 0.00 0.00 0.00 45 1012.9
20260503022007 72 333 3.0 11.0 0.00 0.00 0.00 44 1012.8
20260503021526 72 320 3.0 11.0 0.00 0.00 0.00 44 1012.7
20260503021006 72 336 4.0 11.0 0.00 0.00 0.00 44 1012.8
20260503020507 72 263 3.0 9.0 0.00 0.00 0.00 44 1012.8
20260503020026 72 232 1.0 10.0 0.00 0.00 0.00 44 1012.8
20260503015510 72 347 5.0 10.0 0.00 0.00 0.00 43 1012.8
20260503015002 72 342 3.0 10.0 0.00 0.00 0.00 43 1012.9
20260503014515 73 265 5.0 10.0 0.00 0.00 0.00 42 1012.9
20260503014002 73 286 3.0 10.0 0.00 0.00 0.00 41 1013.0
20260503013508 73 317 2.0 10.0 0.00 0.00 0.00 42 1013.0
20260503013020 73 254 4.0 19.0 0.00 0.00 0.00 41 1013.0
20260503012506 73 250 5.0 19.0 0.00 0.00 0.00 42 1013.1
20260503012006 73 242 4.0 18.0 0.00 0.00 0.00 43 1013.1
20260503011531 74 30 3.0 18.0 0.00 0.00 0.00 42 1013.1
20260503011007 74 352 6.0 13.0 0.00 0.00 0.00 43 1013.1
20260503010510 74 318 4.0 13.0 0.00 0.00 0.00 45 1013.1
20260503010030 74 333 5.0 11.0 0.00 0.00 0.00 46 1013.2
20260503005510 74 286 2.0 9.0 0.00 0.00 0.00 48 1013.3
20260503005011 74 305 3.0 9.0 0.00 0.00 0.00 48 1013.3
20260503004552 75 267 3.0 12.0 0.00 0.00 0.00 49 1013.3
20260503004009 74 360 2.0 12.0 0.00 0.00 0.00 50 1013.3
20260503003503 74 9 5.0 12.0 0.00 0.00 0.00 50 1013.3
20260503003018 74 263 4.0 10.0 0.00 0.00 0.00 51 1013.2
20260503002506 74 293 3.0 10.0 0.00 0.00 0.00 51 1013.2
20260503002007 74 268 2.0 10.0 0.00 0.00 0.00 51 1013.2
20260503001523 74 311 4.0 12.0 0.00 0.00 0.00 51 1013.3
20260503001007 75 333 4.0 12.0 0.00 0.00 0.00 51 1013.5
20260503000512 75 335 3.0 10.0 0.00 0.00 0.00 51 1013.5
20260503000026 75 5 2.0 8.0 0.00 0.00 0.00 51 1013.4
20260502235505 76 279 2.0 11.0 0.00 0.00 0.00 51 1013.5
20260502235006 75 293 2.0 11.0 0.00 0.00 0.00 50 1013.4
20260502234534 76 329 4.0 11.0 0.00 0.00 0.00 51 1013.4
20260502234009 75 298 2.0 11.0 0.00 0.00 0.00 53 1013.5
20260502233508 75 340 4.0 11.0 0.00 0.00 0.00 52 1013.5
20260502233028 76 262 4.0 9.0 0.00 0.00 0.00 51 1013.5
20260502232503 75 285 3.0 6.0 0.00 0.00 0.00 52 1013.5
20260502232005 76 352 2.0 9.0 0.00 0.00 0.00 53 1013.6
20260502231520 75 293 2.0 9.0 0.00 0.00 0.00 54 1013.7
20260502231004 75 323 3.0 12.0 0.00 0.00 0.00 54 1013.7
20260502230508 74 298 2.0 12.0 0.00 0.00 0.00 56 1013.8
20260502230022 74 312 2.0 10.0 0.00 0.00 0.00 54 1013.9
20260502225508 75 333 4.0 11.0 0.00 0.00 0.00 55 1013.9
20260502225009 75 337 3.0 12.0 0.00 0.00 0.00 56 1014.0
20260502224526 74 267 3.0 12.0 0.00 0.00 0.00 58 1014.0
20260502224010 74 262 6.0 11.0 0.00 0.00 0.00 56 1014.1
20260502223509 74 302 4.0 13.0 0.00 0.00 0.00 56 1014.2
20260502223031 74 335 5.0 13.0 0.00 0.00 0.00 57 1014.3
20260502222506 74 292 2.0 11.0 0.00 0.00 0.00 58 1014.4
20260502222007 74 218 3.0 12.0 0.00 0.00 0.00 58 1014.5
20260502221519 73 47 5.0 12.0 0.00 0.00 0.00 58 1014.5
20260502221004 73 139 5.0 12.0 0.00 0.00 0.00 58 1014.5
20260502220508 74 44 4.0 12.0 0.00 0.00 0.00 57 1014.5
20260502220028 74 327 6.0 12.0 0.00 0.00 0.00 57 1014.6
20260502215503 75 352 3.0 10.0 0.00 0.00 0.00 55 1014.7
20260502215003 75 293 1.0 11.0 0.00 0.00 0.00 57 1014.7
20260502214503 74 255 1.0 11.0 0.00 0.00 0.00 59 1014.7
20260502214004 73 345 3.0 12.0 0.00 0.00 0.00 56 1015.0
20260502213503 73 328 4.0 12.0 0.00 0.00 0.00 57 1015.0
20260502213021 74 209 3.0 9.0 0.00 0.00 0.00 55 1015.0
20260502212503 73 338 3.0 9.0 0.00 0.00 0.00 57 1015.0
20260502212003 74 313 2.0 9.0 0.00 0.00 0.00 56 1015.0
20260502211517 74 250 3.0 8.0 0.00 0.00 0.00 56 1015.0
20260502211003 73 271 1.0 11.0 0.00 0.00 0.00 57 1015.1
20260502210506 72 291 3.0 11.0 0.00 0.00 0.00 59 1015.0
20260502210023 72 343 4.0 11.0 0.00 0.00 0.00 61 1015.1
20260502205508 72 339 2.0 10.0 0.00 0.00 0.00 60 1015.1
20260502205007 73 22 2.0 11.0 0.00 0.00 0.00 58 1015.1
20260502204523 72 352 5.0 11.0 0.00 0.00 0.00 60 1015.2